Home   Weather   Green Bay   Past weeks

Flag for USA Past Weather in Green Bay, Wisconsin, USA — Yesterday and Last 2 Weeks

47 °F


Feels Like: 45 °F
Forecast: 40 / 53 °F
Wind: 5 mph from Northwest

Location: Austin Straubel International Airport

Current Time: Oct 24, 2016 at 2:12:34 AM

Latest Report: Oct 24, 2016 at 12:53 AM

Visibility: 10 mi

Pressure: 30.19 "Hg

Humidity: 83%

Dew Point: 42 °F

Location of Green BayLocation

Past Weather in Green Bay — Graph


Green Bay Temperature Yesterday

Maximum temperature yesterday: 60 °F (at 2:53 PM)
Minimum temperature yesterday: 36 °F (at 4:53 AM)
Average temperature yesterday: 47 °F

High & Low Weather Summary for the Past Weeks

High76 °F (Oct 17, 12:53 PM)100% (Oct 9, 11:53 PM)30.44 "Hg (Oct 9, 11:53 PM)
Low32 °F (Oct 14, 2:53 AM)43% (Oct 21, 3:53 PM)29.29 "Hg (Oct 17, 9:53 PM)
Average53 °F81%30.03 "Hg
* Reported Oct 9 12:53 AM — Oct 24 12:53 AM, Green Bay, Weather by CustomWeather, © 2016

Note: Actual official high and low records may vary slightly from our data, if they occured in-between our weather recording intervals... More about our weather records


Green Bay Weather History for the Previous 24 Hours

Scroll right to see more
Time TempWeatherWind HumidityBarometerVisibility
12:53 AM
Mon, Oct 24
47 °FOvercast.5 mph83%30.19 "Hg10 mi
11:53 PM
Sun, Oct 23
48 °FOvercast.7 mph77%30.17 "Hg10 mi
10:53 PM48 °FOvercast.10 mph77%30.15 "Hg10 mi
9:53 PM47 °FOvercast.8 mph83%30.13 "Hg10 mi
8:53 PM46 °FClear.8 mph89%30.10 "Hg10 mi
7:53 PM47 °FClear.8 mph86%30.07 "Hg10 mi
6:53 PM50 °FPartly cloudy.6 mph80%30.03 "Hg10 mi
5:53 PM51 °FMostly cloudy.9 mph92%29.99 "Hg8 mi
4:53 PM54 °FMostly cloudy.17 mph80%29.94 "Hg10 mi
3:53 PM56 °FOvercast.12 mph77%29.89 "Hg10 mi
2:53 PM60 °FScattered clouds.13 mph67%29.83 "Hg10 mi
1:53 PM58 °FPartly sunny.9 mph72%29.81 "Hg10 mi
12:53 PM56 °FOvercast.13 mph75%29.82 "Hg10 mi
11:53 AM59 °FOvercast.8 mph62%29.84 "Hg10 mi
10:53 AM56 °FScattered clouds.5 mph72%29.88 "Hg10 mi
9:53 AM51 °FPartly sunny.No wind89%29.90 "Hg9 mi
8:53 AM43 °FFog.No wind100%29.90 "Hg4 mi
7:53 AM37 °FFog.No wind100%29.94 "Hg5 mi
6:53 AM36 °FOvercast.No wind100%29.95 "Hg8 mi
5:53 AM36 °FFog.No wind97%29.96 "Hg4 mi
4:53 AM36 °FFog.No wind100%29.96 "Hg5 mi
3:53 AM37 °FFog.3 mph100%29.97 "Hg5 mi
2:53 AM38 °FFog.No wind100%29.97 "Hg6 mi
Weather by CustomWeather, © 2016

See weather overviewHow to use our weather pages